Find Mati

NORAD ID: 33312 Int'l Des: 2008-040 Owner: REYE Country: D operational
LEOCIRCULARRETROGRADESSO

Live Position

Loading 3D Globe...

About Mati

Description loading...

Upcoming Passes

Passes for default location (London). Set your location on the main map for personalized predictions.

Altitude History

Loading altitude history...

Two-Line Element Set

1 33312U 08040A 26106.84900691 .00001151 00000-0 84737-4 0 9997
2 33312 97.4298 138.9719 0019505 71.5170 288.8175 15.05104788956741
Epoch: Apr 16, 2026 • Age: 16 hours

Current Status

Altitude 551.6 km
Velocity 7.60 km/s
Sub-Earth Point 81.03°N, 48.15°E
Launch Date Aug 29, 2008
Age 17.6 years
Type other

Technical Details

Classification Payload
Mass 152.00 kg
Dry Mass 140.00 kg
Total Mass 152.00 kg
Length 1.00 m
Diameter 0.80 m
Span 1.00 m
Shape Hept Cyl
Manufacturer SSTL
Bus Type SSTL-150
Phase Status In Orbit
Owner/State REYE/D

Most Searched